Weather reports worldwide

Advertisment
Bergamo/Orio al Serio, Italy (16076): temperature & dewpoint: 16.01.2019 04:00:00 - 22.01.2019 04:00:00 (CET)Bergamo/Orio al Serio, Italy (16076): wind speed: 16.01.2019 04:00:00 - 22.01.2019 04:00:00 (CET)Bergamo/Orio al Serio, Italy (16076): wind direction: 16.01.2019 04:00:00 - 22.01.2019 04:00:00 (CET)Bergamo/Orio al Serio, Italy (16076): reduced air pressure: 16.01.2019 04:00:00 - 22.01.2019 04:00:00 (CET)Bergamo/Orio al Serio, Italy (16076): visibility: 16.01.2019 04:00:00 - 22.01.2019 04:00:00 (CET)Bergamo/Orio al Serio, Italy (16076): precipitation: 16.01.2019 04:00:00 - 22.01.2019 04:00:00 (CET)
Date & Time tt [°C] td [°C] ff [km/h] ff [kn] dd ppp [hPa] vv [km] rr [mm]
22.01.2019 04:00:00 -2,1 -4,5 9 5 N 1012,6 10 0,0
22.01.2019 03:00:00 -2,0 -4,0 9 5 N - 8 -
22.01.2019 02:00:00 -1,0 -3,0 5 3 N - 8 -
22.01.2019 01:00:00 -1,0 -3,7 8 4 N 1014,5 8 -
22.01.2019 00:00:00 -1,0 -3,0 8 4 N - 8 -
21.01.2019 23:00:00 -1,0 -3,0 8 4 N - - -
21.01.2019 22:00:00 -0,6 -2,5 8 4 N 1015,4 7 0,0
21.01.2019 21:00:00 1,0 -1,0 5 3 N - 6 -
21.01.2019 20:00:00 1,0 -1,0 5 3 NNE - 6 -
21.01.2019 19:00:00 1,3 -1,0 2 1 - 1015,5 7 -
21.01.2019 18:00:00 3,0 -1,0 4 2 S - 8 -
21.01.2019 17:00:00 5,0 -1,0 9 5 S - 9 -
21.01.2019 16:00:00 7,0 -1,0 9 5 S - 10 -
21.01.2019 15:00:00 7,0 -1,0 9 5 S - 10 -
21.01.2019 14:00:00 7,0 -2,0 9 5 SSW - 10 -
21.01.2019 13:00:00 6,7 -2,1 8 4 SSW 1016,5 10 -
21.01.2019 12:00:00 5,0 -2,0 8 4 S - 10 -
21.01.2019 11:00:00 4,0 -2,0 2 1 - - 10 -
21.01.2019 10:00:00 1,8 -2,7 5 3 NNE 1017,4 10 0,0
21.01.2019 09:00:00 -1,0 -4,0 4 2 NNE - 10 -
21.01.2019 08:00:00 -1,0 -4,0 5 3 N - 10 -
21.01.2019 07:00:00 -1,0 -3,8 8 4 N 1016,6 8 -
21.01.2019 06:00:00 -2,0 -4,0 5 3 N - 8 -
21.01.2019 05:00:00 -2,0 -4,0 11 6 N - 8 -
21.01.2019 04:00:00 -2,5 -4,1 9 5 N 1016,7 8 0,0
21.01.2019 03:00:00 -2,0 -3,0 5 3 N - 7 -
21.01.2019 02:00:00 -1,0 -2,0 4 2 NNE - 8 -
21.01.2019 01:00:00 -1,7 -3,5 5 3 N 1016,5 8 -
21.01.2019 00:00:00 -1,0 -3,0 11 6 N - 8 -
20.01.2019 23:00:00 -1,0 -3,0 9 5 N - 8 -
20.01.2019 22:00:00 -0,8 -2,4 8 4 NNE 1016,2 8 0,0
20.01.2019 21:00:00 0,0 -2,0 5 3 N - 8 -
20.01.2019 20:00:00 1,0 -2,0 5 3 N - 8 -
20.01.2019 19:00:00 1,7 -1,2 5 3 N 1014,9 8 -
20.01.2019 18:00:00 4,0 -1,0 5 3 S - 7 -
20.01.2019 17:00:00 5,0 -1,0 8 4 SSW - 8 -
20.01.2019 16:00:00 5,6 -1,5 8 4 SW 1013,9 10 0,0
20.01.2019 15:00:00 6,0 -2,0 8 4 SSW - 10 -
20.01.2019 14:00:00 6,0 -2,0 5 3 S - 10 -
20.01.2019 13:00:00 5,5 -0,6 8 4 SSE 1014,5 10 -
20.01.2019 12:00:00 5,0 -1,0 5 3 S - 10 -
20.01.2019 11:00:00 4,0 -1,0 2 1 - - 10 -
20.01.2019 10:00:00 1,4 -1,9 8 4 N 1014,8 10 0,0
20.01.2019 09:00:00 -1,0 -3,0 8 4 N - 10 -
20.01.2019 08:00:00 -1,0 -3,0 8 4 N - 10 -
20.01.2019 07:00:00 -1,4 -3,1 9 5 N 1013,6 10 -
20.01.2019 06:00:00 -1,0 -3,0 8 4 N - 10 -
20.01.2019 05:00:00 -2,0 -3,0 8 4 N - 10 -
20.01.2019 04:00:00 -0,8 -2,3 5 3 N 1014,2 10 0,0
20.01.2019 03:00:00 -1,0 -2,0 8 4 N - 10 -
20.01.2019 02:00:00 0,0 -1,0 5 3 N - 10 -
20.01.2019 01:00:00 0,5 -1,4 2 1 - 1014,7 10 -
20.01.2019 00:00:00 2,0 -1,0 2 1 - - 10 -
19.01.2019 23:00:00 2,0 -1,0 5 3 N - 10 -
19.01.2019 22:00:00 1,7 -1,2 8 4 N 1015,3 10 0,0
19.01.2019 21:00:00 1,0 -1,0 9 5 N - 10 -
19.01.2019 20:00:00 2,0 -2,0 5 3 NNE - 10 -
19.01.2019 19:00:00 3,5 -2,2 4 2 WNW 1015,2 10 -
19.01.2019 18:00:00 4,0 -2,0 4 2 W - 10 -
19.01.2019 17:00:00 4,0 -2,0 2 1 - - 10 -
19.01.2019 16:00:00 4,4 -2,4 4 2 - 1015,4 10 0,0
19.01.2019 15:00:00 4,0 -3,0 8 4 WSW - 10 -
19.01.2019 14:00:00 5,0 -2,0 8 4 W - 10 -
19.01.2019 13:00:00 4,6 -2,4 5 3 W 1016,7 10 -
19.01.2019 12:00:00 4,0 -1,0 8 4 W - 10 -
19.01.2019 11:00:00 4,0 -1,0 5 3 WNW - 10 -
19.01.2019 10:00:00 3,4 -0,9 9 5 W 1017,3 10 0,0
19.01.2019 09:00:00 3,0 0,0 5 3 NW - 10 -
19.01.2019 08:00:00 3,0 0,0 5 3 WNW - 10 -
19.01.2019 07:00:00 2,4 0,2 4 2 WNW 1016,6 10 -
19.01.2019 06:00:00 3,0 0,0 5 3 W - 10 -
19.01.2019 05:00:00 4,0 0,0 11 6 SSW - 10 -
19.01.2019 04:00:00 4,0 1,9 9 5 WSW 1016,7 10 0,0
19.01.2019 03:00:00 4,0 3,0 5 3 W - 10 -
19.01.2019 02:00:00 3,0 2,0 0 0 N - 10 -
19.01.2019 01:00:00 2,5 1,6 5 3 N 1016,6 - -
19.01.2019 00:00:00 3,0 2,0 2 1 - - 10 -
18.01.2019 23:00:00 3,0 2,0 2 1 - - 10 -
18.01.2019 22:00:00 3,7 2,1 5 3 WNW 1015,8 10 0,0
18.01.2019 21:00:00 3,0 2,0 4 2 NNW - 10 -
18.01.2019 20:00:00 4,0 2,0 2 1 - - 10 -
18.01.2019 19:00:00 4,1 2,6 9 5 ESE 1015,3 10 -
18.01.2019 18:00:00 6,0 4,0 18 10 SE - 7 -
18.01.2019 17:00:00 6,0 4,0 9 5 SE - 5 -
18.01.2019 16:00:00 6,8 3,6 16 9 SE 1013,7 6 0,0
18.01.2019 15:00:00 9,0 3,0 5 3 ESE - 6 -
18.01.2019 14:00:00 7,0 4,0 5 3 SE - 5 -
18.01.2019 13:00:00 6,4 4,3 9 5 SSE 1011,9 4,0 -
18.01.2019 12:00:00 8,0 4,0 5 3 SSE - 8 -
18.01.2019 11:00:00 6,0 4,0 4 2 - - 7 -
18.01.2019 10:00:00 4,4 2,8 4 2 - 1011,0 7 0,0
18.01.2019 09:00:00 4,0 3,0 5 3 N - 4,0 -
18.01.2019 08:00:00 4,0 3,0 4 2 - - 2,5 -
18.01.2019 07:00:00 4,4 4,2 5 3 SSE 1008,9 2,0 -
18.01.2019 06:00:00 4,0 4,0 4 2 - - 0,6 -
18.01.2019 05:00:00 4,0 4,0 5 3 WNW - 1,0 -
18.01.2019 04:00:00 4,5 4,3 8 4 WSW 1008,7 1,0 0,0
18.01.2019 03:00:00 5,0 4,0 2 1 - - 1,0 -
18.01.2019 02:00:00 5,0 5,0 9 5 SW - 1,0 -
18.01.2019 01:00:00 4,7 4,5 8 4 W 1009,6 1,0 -
18.01.2019 00:00:00 5,0 5,0 5 3 W - 1,2 -
17.01.2019 23:00:00 5,0 5,0 8 4 SW - 1,2 -
17.01.2019 22:00:00 5,1 4,8 5 3 WNW 1010,4 1,2 0,0
17.01.2019 21:00:00 5,0 4,0 9 5 SW - 1,5 -
17.01.2019 20:00:00 5,0 5,0 4 2 W - 2,0 -
17.01.2019 19:00:00 4,7 4,1 2 1 - 1011,0 2,0 -
17.01.2019 18:00:00 5,0 4,0 2 1 - - 2,5 -
17.01.2019 17:00:00 - - - - - - - -
17.01.2019 16:00:00 5,1 3,8 5 3 S 1011,9 3,0 0,0
17.01.2019 15:00:00 5,0 4,0 5 3 SSE - 3,0 -
17.01.2019 14:00:00 5,0 4,0 5 3 SE - 3,0 -
17.01.2019 13:00:00 5,1 4,1 5 3 ESE 1013,6 3,0 -
17.01.2019 12:00:00 5,0 4,0 4 2 - - 3,0 -
17.01.2019 11:00:00 5,0 3,0 5 3 E - 3,0 -
17.01.2019 10:00:00 4,4 2,8 9 5 S 1015,1 3,0 0,0
17.01.2019 09:00:00 6,0 5,0 4 2 - - 6 -
17.01.2019 08:00:00 6,0 6,0 11 6 N - 10 -
17.01.2019 07:00:00 6,4 5,8 4 2 N 1014,7 10 -
17.01.2019 06:00:00 7,0 6,0 5 3 N - 10 -
17.01.2019 05:00:00 7,0 6,0 5 3 NNW - 10 -
17.01.2019 04:00:00 7,0 6,1 5 3 NNW 1016,0 10 0,0
17.01.2019 03:00:00 7,0 6,0 5 3 NNW - 10 -
17.01.2019 02:00:00 7,0 6,0 8 4 N - 10 -
17.01.2019 01:00:00 7,6 6,6 8 4 N 1017,3 10 -
17.01.2019 00:00:00 8,0 7,0 8 4 NNW - 10 -
16.01.2019 23:00:00 8,0 7,0 8 4 NNW - 10 -
16.01.2019 22:00:00 8,1 6,9 5 3 NNW 1018,3 10 0,0
16.01.2019 21:00:00 8,0 6,0 8 4 NW - 8 -
16.01.2019 20:00:00 9,0 5,0 8 4 SSW - 10 -
16.01.2019 19:00:00 9,1 3,4 5 3 W 1017,7 10 -
16.01.2019 18:00:00 10,0 3,0 8 4 W - 10 -
16.01.2019 17:00:00 12,0 3,0 13 7 W - 10 -
16.01.2019 16:00:00 12,2 3,3 13 7 W 1017,6 10 0,0
16.01.2019 15:00:00 12,0 4,0 15 8 W - 10 -
16.01.2019 14:00:00 12,0 3,0 16 9 WNW - 10 -
16.01.2019 13:00:00 12,9 3,1 15 8 WNW 1018,8 10 -
16.01.2019 12:00:00 12,0 3,0 11 6 NW - 10 -
16.01.2019 11:00:00 10,0 1,0 11 6 N - 10 -
16.01.2019 10:00:00 7,7 -1,9 9 5 N 1019,9 10 0,0
16.01.2019 09:00:00 4,0 -5,0 8 4 N - 10 -
16.01.2019 08:00:00 3,0 -5,0 8 4 N - 10 -
16.01.2019 07:00:00 2,1 -5,5 9 5 NNE 1018,8 10 -
16.01.2019 06:00:00 - - - - - - - -
16.01.2019 05:00:00 1,0 -6,0 9 5 N - 10 -
16.01.2019 04:00:00 2,8 -6,4 5 3 NNE 1019,4 10 0,0

tt = temperature
td = dewpoint
ff = wind speed
dd = wind direction
ppp = reduced air pressure
vv = visibility
rr = precipitation

Next stations